[[{"header":{"parameterUnit":"m.s-1","parameterCategory":1,"la1":30.2991,"la2":30.254,"lo1":-89.0895,"lo2":-89.0444,"dy":0.0017,"dx":0.0017,"nx":28,"ny":28,"refTime":"2024-03-28T21:00:00:Z","depth":0,"parameterNumber":2,"parameterNumberName":"U-component_of_WINDS"},"data":[0,0,0,0,0,0,0,0,0,0,0,0,0,0,0,0,0,0,0,0,0,0,0,0,0,0,0,0,0,0,0,0,0,0,0,0,0,0,0,0,0,0,0,0,0,0,0,0,0,0,0,0,0,0,0,0,0,0,0.9942,0.9943,0,1.0029,1.003,1.0031,1.0056,1.0055,1.0055,1.0054,1.0143,1.0146,1.0148,0,0,0,0,0,0,0,0,0,0,0,0,0,0.9798,0.98,0.9942,0.9943,0.9944,1.0029,1.003,1.0031,1.0056,1.0055,1.0055,1.0054,1.0142,1.0145,1.0149,0,0,0,0,0,0,0,0,0,0,0,0,0,0.987,0.9801,0.9942,0.9967,0.997,1.0029,1.003,1.0032,1.0056,1.0055,1.0055,1.0054,1.0141,1.0145,1.0149,1.0189,0,0,1.0162,1.0164,0,0,0,0,0,0,0,0,0.9866,0.9875,0.9962,0.9965,0.9969,1.0031,1.0012,1.0085,1.0056,1.0023,1.0054,1.0054,1.0106,1.0113,1.0131,1.0193,1.0197,1.0162,1.0165,1.0167,1.0168,0,0,0,0,0,0,0,0.9861,0.9872,0.9977,0.9963,0.9968,0.9974,0.9983,1.0026,1.0068,1.0026,1.0028,1.0038,1.0108,1.0127,1.0133,1.0199,1.0162,1.0166,1.0168,1.017,1.0299,1.03,0,0,0,0,0,0,0.9852,0.9867,0.9974,0.9979,0.9915,0.9977,0.9987,1.0012,1.0067,1.0075,1.0039,1.0039,1.012,1.0128,1.0136,1.0188,1.0167,1.0171,1.0173,1.0298,1.0299,1.03,0,0,0,0,0,0,0.9848,0.9861,0.997,0.9924,0.9938,0.998,1.0007,1.0014,1.0033,1.0077,1.0084,1.005,1.012,1.0131,1.0176,1.0191,1.0172,1.0176,1.0297,1.0298,1.0299,1.029,0,0,0,0,0,0,0.9844,0.986,0.9875,0.9924,0.9941,1.0009,1.0008,1.0016,1.004,1.0041,1.009,1.0097,1.012,1.017,1.018,1.0196,1.018,1.0296,1.0297,1.0299,1.0289,1.0291,1.0292,0,0,0,0,0,0.9839,0.9869,0.9876,0.9889,0.9961,1.0009,1.0019,1.0045,1.0041,1.0057,1.0086,1.0096,1.0188,1.0174,1.0186,1.0204,1.0295,1.0297,1.0299,1.0288,1.029,1.0292,0,0,0,0,0,0,0.982,0.9876,0.9884,0.9931,0.9965,1.0013,1.0035,1.0046,1.0082,1.0082,1.0112,1.0123,1.0167,1.019,1.0174,1.0246,1.0241,1.0246,1.0229,1.0231,1.0233,1.0227,1.0183,0,0,0,0,0,0.9822,0.9856,0.9903,0.9939,0.9956,0.9992,1.0014,1.0032,1.0068,1.0083,1.0115,1.015,1.0187,1.021,1.0247,1.0292,1.0303,1.031,1.0312,1.0313,1.0317,1.0343,1.0347,1.0307,1.0307,1.0306,0,0,0.9825,0.9859,0.9879,0.9937,0.9965,1.0,1.0005,1.0041,1.0068,1.0089,1.0134,1.0158,1.0199,1.0245,1.0267,1.0266,1.033,1.0316,1.0316,1.0319,1.0345,1.0349,1.0352,1.0308,1.0308,1.0307,0,0,0.9848,0.9878,0.9912,0.9941,0.9984,1.0008,1.0016,1.0063,1.008,1.0126,1.0143,1.0174,1.0237,1.0266,1.0289,1.0324,1.0335,1.0335,1.0343,1.0368,1.0372,1.0374,1.0387,1.0391,1.0339,1.0339,1.0339,0,0.9847,0.9901,0.9928,0.9964,0.9989,1.001,1.0045,1.0071,1.0124,1.0141,1.0139,1.0219,1.0248,1.0301,1.031,1.0328,1.0338,1.033,1.0369,1.0372,1.0375,1.0388,1.0392,1.0338,1.0338,1.0338,1.0338,0,0.9896,0.9933,0.9956,1.0007,1.0034,1.007,1.0102,1.0127,1.0142,1.0166,1.0212,1.0248,1.0292,1.0306,1.0321,1.0362,1.036,1.0363,1.0359,1.0378,1.0391,1.0396,1.0338,1.0338,1.0338,1.0338,0,0,0.991,0.9977,0.9985,1.0008,1.0058,1.0087,1.0124,1.0167,1.0188,1.0224,1.0255,1.0308,1.0311,1.0337,1.0356,1.0378,1.0404,1.0378,1.038,1.0382,1.0451,1.0448,1.0453,1.0411,1.0412,1.0413,1.0447,0,0.9941,1.0007,1.0033,1.0086,1.0121,1.0142,1.0173,1.0207,1.0231,1.0264,1.029,1.0327,1.0329,1.0344,1.0367,1.0395,1.0418,1.0393,1.044,1.0442,1.0429,1.046,1.0457,1.0488,1.0452,1.0453,1.0454,0,0.9984,1.0021,1.0079,1.0125,1.014,1.0168,1.0211,1.0242,1.0281,1.0296,1.0326,1.0343,1.0382,1.0375,1.0429,1.0412,1.0433,1.045,1.0451,1.0457,1.0449,1.0466,1.0498,1.0503,1.0462,1.0461,1.046,0,0.9989,1.0053,1.0096,1.0116,1.017,1.019,1.0213,1.0252,1.0276,1.0313,1.0329,1.037,1.0392,1.0423,1.0451,1.0444,1.0503,1.0498,1.0517,1.0516,1.0528,1.0527,1.0564,1.0541,1.0541,1.0541,1.0541,0,1.002,1.0054,1.0099,1.0125,1.0164,1.0194,1.0232,1.0257,1.0291,1.0322,1.0342,1.0371,1.0406,1.0439,1.0461,1.0502,1.0512,1.0526,1.0531,1.0524,1.0522,1.0538,1.0537,1.0542,1.0542,1.0542,1.0542,0,1.0032,1.0063,1.0111,1.0159,1.0172,1.0199,1.024,1.0266,1.0291,1.033,1.0341,1.038,1.0421,1.0451,1.0503,1.0518,1.0562,1.0568,1.0549,1.0552,1.0568,1.0566,1.0617,1.0625,1.0597,1.0597,1.0597,0,1.005,1.0077,1.0128,1.0151,1.0174,1.021,1.0236,1.0266,1.0292,1.0339,1.0359,1.0401,1.0436,1.05,1.0533,1.0573,1.058,1.0595,1.0586,1.0578,1.058,1.0578,1.0581,1.0596,1.0596,1.0596,1.0596,0,1.0078,1.0092,1.0128,1.017,1.02,1.0234,1.0268,1.0286,1.0322,1.035,1.0392,1.0419,1.0473,1.0514,1.0558,1.0582,1.0595,1.0599,1.0605,1.0598,1.0586,1.0593,1.0552,1.0597,1.0597,1.0597,1.0597,1.0597,1.0093,1.0118,1.0159,1.0198,1.0227,1.0259,1.0287,1.0315,1.035,1.0397,1.0412,1.0456,1.0494,1.0554,1.0579,1.0613,1.0613,1.0622,1.0625,1.0627,1.0626,1.0581,1.0621,1.0621,1.0621,1.0621,1.0621,0,1.0122,1.015,1.0186,1.0234,1.0265,1.0275,1.0314,1.0339,1.0377,1.0412,1.0447,1.0495,1.0535,1.0571,1.0613,1.0634,1.0641,1.0644,1.0642,1.0648,1.0624,1.0614,1.0637,1.0637,1.0637,1.0637,1.0637,1.0637,1.0141,1.0184,1.0204,1.0261,1.0288,1.0331,1.0352,1.0382,1.041,1.0463,1.0497,1.0521,1.0556,1.0601,1.0638,1.0648,1.0662,1.0664,1.0675,1.0651,1.0649,1.0648,1.0639,1.0667,1.0667,1.0696,1.0697,1.0697]},{"header":{"parameterUnit":"m.s-1","parameterCategory":1,"la1":30.2991,"la2":30.254,"lo1":-89.0895,"lo2":-89.0444,"dy":0.0017,"dx":0.0017,"nx":28,"ny":28,"refTime":"2024-03-28T21:00:00:Z","depth":0,"parameterNumber":3,"parameterNumberName":"V-component_of_WINDS"},"data":[0,0,0,0,0,0,0,0,0,0,0,0,0,0,0,0,0,0,0,0,0,0,0,0,0,0,0,0,0,0,0,0,0,0,0,0,0,0,0,0,0,0,0,0,0,0,0,0,0,0,0,0,0,0,0,0,0,0,3.1564,3.1564,0,3.1602,3.1602,3.1603,3.1617,3.1617,3.1617,3.1617,3.1652,3.1652,3.1654,0,0,0,0,0,0,0,0,0,0,0,0,0,3.1499,3.15,3.1564,3.1564,3.1565,3.1602,3.1602,3.1603,3.1617,3.1617,3.1617,3.1617,3.1651,3.1652,3.1654,0,0,0,0,0,0,0,0,0,0,0,0,0,3.1531,3.15,3.1564,3.1576,3.1578,3.1602,3.1603,3.1603,3.1617,3.1617,3.1617,3.1617,3.1651,3.1652,3.1654,3.1667,0,0,3.1658,3.1659,0,0,0,0,0,0,0,0,3.1529,3.1533,3.1574,3.1575,3.1577,3.1605,3.1592,3.1624,3.1617,3.1602,3.1617,3.1617,3.1636,3.1639,3.1646,3.1668,3.167,3.1659,3.166,3.166,3.1661,0,0,0,0,0,0,0,3.1527,3.1532,3.1579,3.1574,3.1576,3.1579,3.1583,3.1599,3.1619,3.1603,3.1604,3.1609,3.1637,3.1644,3.1647,3.167,3.1659,3.166,3.1661,3.1662,3.1706,3.1706,0,0,0,0,0,0,3.1523,3.153,3.1577,3.158,3.1552,3.158,3.1585,3.1596,3.1619,3.1623,3.1609,3.161,3.1642,3.1645,3.1648,3.1666,3.166,3.1662,3.1663,3.1706,3.1706,3.1706,0,0,0,0,0,0,3.1522,3.1527,3.1576,3.1555,3.1562,3.1582,3.1594,3.1597,3.1605,3.1624,3.1627,3.1614,3.1642,3.1646,3.1663,3.1667,3.1662,3.1664,3.1706,3.1706,3.1706,3.17,0,0,0,0,0,0,3.152,3.1527,3.1533,3.1555,3.1563,3.1591,3.1594,3.1598,3.1608,3.1609,3.1629,3.1632,3.1642,3.166,3.1664,3.1669,3.1665,3.1705,3.1706,3.1706,3.17,3.17,3.17,0,0,0,0,0,3.1517,3.1528,3.1533,3.1538,3.1571,3.1591,3.1595,3.1608,3.1608,3.1614,3.1626,3.1631,3.1666,3.1662,3.1666,3.1672,3.1705,3.1706,3.1706,3.17,3.17,3.17,0,0,0,0,0,0,3.1503,3.1531,3.1537,3.1555,3.1571,3.1593,3.1601,3.1608,3.1622,3.1622,3.1636,3.1641,3.1656,3.1665,3.166,3.1686,3.1686,3.1687,3.1679,3.168,3.168,3.1677,3.1666,0,0,0,0,0,3.1502,3.1518,3.1541,3.1555,3.1563,3.158,3.159,3.1599,3.1615,3.1621,3.1634,3.1648,3.1663,3.1672,3.1686,3.1701,3.1706,3.1707,3.1707,3.1708,3.1709,3.1718,3.1719,3.1708,3.1708,3.1708,0,0,3.15,3.1517,3.1526,3.1552,3.1566,3.158,3.1586,3.1601,3.1612,3.1622,3.164,3.165,3.1667,3.1683,3.1691,3.1691,3.1713,3.1708,3.1708,3.1709,3.1719,3.172,3.1721,3.1709,3.1709,3.1709,0,0,3.1504,3.1519,3.1533,3.1547,3.1567,3.1579,3.1583,3.1605,3.1613,3.163,3.1639,3.1652,3.1676,3.1688,3.1697,3.1707,3.1713,3.1711,3.1712,3.1722,3.1722,3.1723,3.1727,3.1729,3.1712,3.1712,3.1712,0,3.1498,3.1523,3.1538,3.1554,3.1565,3.1578,3.1592,3.1604,3.1627,3.1634,3.1635,3.1666,3.1678,3.1698,3.1701,3.1708,3.1712,3.1709,3.1721,3.1722,3.1723,3.1727,3.1729,3.1712,3.1712,3.1712,3.1712,0,3.1515,3.1532,3.154,3.1565,3.1577,3.1592,3.1609,3.1619,3.1627,3.1639,3.1657,3.1672,3.169,3.1695,3.1702,3.1717,3.1716,3.1719,3.1719,3.1724,3.1728,3.173,3.1712,3.1712,3.1712,3.1712,0,0,3.151,3.1545,3.1548,3.156,3.1584,3.1597,3.1612,3.1631,3.164,3.1656,3.1668,3.1689,3.1693,3.1703,3.1712,3.172,3.1728,3.1721,3.1722,3.1722,3.1745,3.1743,3.1744,3.1732,3.1732,3.1732,3.1743,0,3.1517,3.1547,3.1562,3.1584,3.16,3.1613,3.1626,3.1642,3.1653,3.1667,3.1679,3.1694,3.1697,3.1704,3.1712,3.1725,3.1732,3.1724,3.1743,3.1743,3.1738,3.1746,3.1744,3.1754,3.1745,3.1745,3.1745,0,3.153,3.1548,3.1573,3.1597,3.1604,3.1616,3.1636,3.1649,3.1667,3.1675,3.1688,3.1697,3.1712,3.1712,3.1733,3.1727,3.1736,3.1743,3.1744,3.1746,3.1745,3.1749,3.1757,3.1759,3.1748,3.1748,3.1748,0,3.1524,3.1555,3.1574,3.1584,3.1612,3.162,3.1632,3.1651,3.1662,3.1678,3.1686,3.1703,3.1712,3.1725,3.1739,3.1737,3.1759,3.1759,3.1765,3.1765,3.1769,3.1768,3.1779,3.1774,3.1774,3.1774,3.1774,0,3.1531,3.1546,3.1572,3.1584,3.16,3.1618,3.1633,3.1646,3.1662,3.1676,3.1687,3.17,3.1716,3.173,3.1741,3.1757,3.1761,3.1767,3.177,3.1766,3.1766,3.1772,3.1771,3.1774,3.1774,3.1774,3.1774,0,3.1527,3.1546,3.1568,3.1594,3.1601,3.1612,3.1634,3.1645,3.1658,3.1675,3.168,3.1699,3.1717,3.1731,3.1753,3.176,3.1777,3.178,3.1772,3.1773,3.1779,3.1778,3.1793,3.1796,3.1789,3.1789,3.1789,0,3.1531,3.1543,3.1571,3.1582,3.1595,3.1612,3.1624,3.1641,3.1653,3.1676,3.1684,3.1703,3.1719,3.1746,3.1761,3.1778,3.1781,3.1786,3.1784,3.1781,3.1782,3.1781,3.1783,3.1786,3.1786,3.1786,3.1786,0,3.1535,3.1544,3.1562,3.1584,3.1599,3.1616,3.1633,3.1641,3.1662,3.1674,3.1693,3.1706,3.173,3.1748,3.1767,3.1778,3.1785,3.1786,3.1789,3.1785,3.178,3.1783,3.1772,3.1786,3.1786,3.1786,3.1786,3.1786,3.1535,3.1547,3.1569,3.1589,3.1605,3.1621,3.1634,3.1649,3.1666,3.1688,3.1697,3.1716,3.1735,3.1762,3.1773,3.1787,3.1788,3.1791,3.1792,3.1793,3.1793,3.1778,3.1791,3.1791,3.1791,3.1791,3.1791,0,3.154,3.1556,3.1574,3.16,3.1615,3.1623,3.1643,3.1655,3.1673,3.169,3.1707,3.1729,3.1747,3.1764,3.1783,3.1791,3.1795,3.1795,3.1795,3.1797,3.1791,3.1787,3.1792,3.1792,3.1792,3.1792,3.1792,3.1792,3.1544,3.1565,3.1577,3.1605,3.1621,3.1642,3.1652,3.1667,3.1682,3.1707,3.1723,3.1735,3.1752,3.1772,3.1789,3.1794,3.18,3.18,3.1805,3.1798,3.1798,3.1797,3.1794,3.1801,3.1801,3.1811,3.1811,3.1811]}]]